[[{"header":{"parameterUnit":"m.s-1","parameterCategory":2,"la1":30.2991,"la2":30.254,"lo1":-89.0895,"lo2":-89.0444,"dy":0.0017,"dx":0.0017,"nx":28,"ny":28,"refTime":"2026-02-01T09:00:00:Z","depth":"0","parameterNumber":2,"parameterNumberName":"U-component_of_CURRENTS"},"data":[0,0,0,0,0,0,0,0,0,0,0,0,0,0,0,0,0,0,0,0,0,0,0,0,0,0,0,0,0,0,0,0,0,0,0,0,0,0,0,0,0,0,0,0,0,0,0,0,0,0,0,0,0,0,0,0,0,0,0.1578,0.1579,0,0.1584,0.1584,0.1584,0.1583,0.1583,0.1584,0.1584,0.1579,0.1579,0.1579,0,0,0,0,0,0,0,0,0,0,0,0,0,0.1529,0.153,0.1578,0.1579,0.1579,0.1584,0.1584,0.1584,0.1583,0.1583,0.1584,0.1584,0.158,0.1579,0.1579,0,0,0,0,0,0,0,0,0,0,0,0,0,0.1542,0.153,0.1578,0.1581,0.1582,0.1584,0.1584,0.1584,0.1583,0.1583,0.1584,0.1584,0.158,0.1579,0.1579,0.1573,0,0,0.1578,0.1578,0,0,0,0,0,0,0,0,0.1541,0.1543,0.158,0.1581,0.1581,0.1585,0.1565,0.1581,0.1583,0.158,0.1584,0.1584,0.1582,0.1581,0.1579,0.1573,0.1573,0.1578,0.1578,0.1577,0.1577,0,0,0,0,0,0,0,0.154,0.1543,0.1578,0.1581,0.1581,0.1569,0.1571,0.1568,0.1578,0.158,0.1581,0.1585,0.1582,0.1579,0.1579,0.1573,0.1578,0.1578,0.1577,0.1577,0.1594,0.1594,0,0,0,0,0,0,0.1547,0.1543,0.1578,0.1579,0.1564,0.157,0.1573,0.1582,0.1578,0.1578,0.1585,0.1585,0.158,0.1579,0.1579,0.1569,0.1577,0.1577,0.1577,0.1593,0.1594,0.1595,0,0,0,0,0,0,0.1546,0.155,0.1578,0.1562,0.1565,0.1572,0.1582,0.1582,0.1579,0.1582,0.1582,0.1582,0.158,0.1579,0.1577,0.1569,0.1577,0.1577,0.1592,0.1593,0.1594,0.1551,0,0,0,0,0,0,0.1544,0.155,0.1545,0.1563,0.1567,0.1579,0.1582,0.1582,0.1582,0.1582,0.1579,0.1579,0.158,0.1577,0.1576,0.1568,0.1576,0.1591,0.1593,0.1594,0.1551,0.155,0.1549,0,0,0,0,0,0.1542,0.1541,0.1545,0.1549,0.1565,0.1579,0.1579,0.1582,0.1582,0.1579,0.1579,0.1579,0.1585,0.1577,0.1576,0.1568,0.1591,0.1592,0.1594,0.1552,0.155,0.1549,0,0,0,0,0,0,0.1517,0.1542,0.1547,0.1552,0.1564,0.158,0.1576,0.158,0.1577,0.1577,0.1578,0.1577,0.158,0.1584,0.1575,0.1581,0.1592,0.1593,0.156,0.1559,0.1558,0.1545,0.1576,0,0,0,0,0,0.1511,0.1515,0.1539,0.1541,0.1551,0.1562,0.1564,0.157,0.1577,0.1576,0.1571,0.1577,0.1585,0.1579,0.159,0.1579,0.1583,0.158,0.1579,0.1577,0.157,0.1577,0.1575,0.1599,0.1599,0.1599,0,0,0.1502,0.1515,0.1517,0.1535,0.1546,0.1554,0.1563,0.1572,0.1567,0.1576,0.156,0.1574,0.1587,0.1583,0.1584,0.1581,0.1572,0.1579,0.1577,0.157,0.1578,0.1575,0.1573,0.16,0.16,0.16,0,0,0.1495,0.1501,0.1508,0.1519,0.1538,0.1543,0.1546,0.156,0.1554,0.1548,0.1561,0.1563,0.1566,0.1568,0.1572,0.1571,0.1575,0.1584,0.155,0.1557,0.1554,0.1552,0.1545,0.1542,0.1572,0.1571,0.1571,0,0.148,0.1497,0.1509,0.1522,0.1529,0.1539,0.1549,0.1542,0.1546,0.1539,0.1541,0.1553,0.1556,0.1556,0.1553,0.1564,0.1569,0.1547,0.1552,0.155,0.1549,0.1542,0.154,0.157,0.157,0.157,0.157,0,0.1485,0.1497,0.1503,0.152,0.1524,0.1535,0.1539,0.1527,0.152,0.1518,0.1516,0.1521,0.1528,0.1531,0.1534,0.1529,0.1537,0.1556,0.1547,0.1543,0.1537,0.1535,0.1567,0.1568,0.1568,0.1569,0,0,0.1458,0.1498,0.15,0.1512,0.1526,0.1533,0.1517,0.1512,0.1497,0.1493,0.1476,0.1484,0.149,0.1497,0.1507,0.1497,0.1479,0.1512,0.1513,0.1489,0.1485,0.1479,0.1477,0.15,0.15,0.15,0.1482,0,0.1458,0.1483,0.1499,0.1511,0.1525,0.1526,0.1511,0.1502,0.1485,0.1465,0.1466,0.1462,0.1477,0.1477,0.1473,0.1486,0.1475,0.1482,0.1507,0.1507,0.149,0.1475,0.1517,0.1503,0.148,0.148,0.1479,0,0.1456,0.1474,0.1493,0.1513,0.1519,0.1517,0.1495,0.1487,0.146,0.1448,0.1442,0.1442,0.1432,0.1445,0.1453,0.1459,0.1466,0.1469,0.147,0.1477,0.1498,0.1509,0.1501,0.159,0.1477,0.1477,0.1477,0,0.1432,0.1467,0.1479,0.1489,0.1508,0.1502,0.1502,0.1479,0.1467,0.1437,0.1421,0.1421,0.1414,0.1429,0.1437,0.1445,0.1441,0.1459,0.1458,0.1457,0.1503,0.1507,0.1571,0.1459,0.1459,0.1459,0.1459,0,0.1423,0.1433,0.147,0.1477,0.1476,0.1496,0.1479,0.1468,0.1454,0.1437,0.142,0.1403,0.1409,0.1407,0.1425,0.1434,0.1439,0.1442,0.1451,0.1489,0.1492,0.158,0.1575,0.1458,0.1458,0.1458,0.1459,0,0.1394,0.1422,0.1436,0.1462,0.1468,0.1465,0.1474,0.1459,0.1449,0.1424,0.1414,0.1387,0.1387,0.1395,0.1405,0.1413,0.139,0.1428,0.1462,0.1474,0.1547,0.1535,0.1336,0.1229,0.1415,0.1415,0.1414,0,0.1376,0.1387,0.1419,0.1422,0.1433,0.1438,0.1436,0.1447,0.1437,0.1417,0.1404,0.1384,0.137,0.1376,0.1399,0.142,0.1376,0.1448,0.1466,0.1546,0.1541,0.1358,0.1269,0.1509,0.151,0.151,0.1511,0,0.1339,0.1356,0.1372,0.1387,0.1391,0.1394,0.1401,0.1402,0.141,0.1399,0.1385,0.1372,0.1374,0.1401,0.1414,0.1438,0.1387,0.1455,0.1544,0.1613,0.1411,0.1317,0.1516,0.1515,0.1514,0.1514,0.1514,0.1514,0.1297,0.1304,0.1332,0.1348,0.1352,0.135,0.1345,0.1361,0.1363,0.1344,0.1372,0.1344,0.1415,0.1442,0.1487,0.1582,0.1388,0.1617,0.1592,0.1395,0.1296,0.1484,0.1491,0.149,0.149,0.1489,0.1489,0,0.1233,0.1266,0.1286,0.13,0.1297,0.1311,0.1316,0.1309,0.1311,0.1298,0.1305,0.1342,0.1453,0.1526,0.1642,0.1718,0.1582,0.176,0.1588,0.1484,0.1723,0.1745,0.1801,0.1801,0.1801,0.1801,0.1801,0.1801,0.1194,0.1207,0.1244,0.1244,0.1254,0.1227,0.1226,0.1224,0.1214,0.1168,0.1136,0.1132,0.1313,0.1654,0.1868,0.189,0.1716,0.1699,0.1567,0.1921,0.1908,0.1896,0.1923,0.2015,0.2015,0.1274,0.1269,0.1266]},{"header":{"parameterUnit":"m.s-1","parameterCategory":2,"la1":30.2991,"la2":30.254,"lo1":-89.0895,"lo2":-89.0444,"dy":0.0017,"dx":0.0017,"nx":28,"ny":28,"refTime":"2026-02-01T09:00:00:Z","depth":"0","parameterNumber":3,"parameterNumberName":"V-component_of_CURRENTS"},"data":[0,0,0,0,0,0,0,0,0,0,0,0,0,0,0,0,0,0,0,0,0,0,0,0,0,0,0,0,0,0,0,0,0,0,0,0,0,0,0,0,0,0,0,0,0,0,0,0,0,0,0,0,0,0,0,0,0,0,-0.1719,-0.1719,0,-0.1678,-0.1677,-0.1676,-0.1594,-0.1593,-0.1592,-0.159,-0.1534,-0.1534,-0.1533,0,0,0,0,0,0,0,0,0,0,0,0,0,-0.1684,-0.1685,-0.1719,-0.1719,-0.1719,-0.1678,-0.1677,-0.1676,-0.1594,-0.1593,-0.1591,-0.159,-0.1534,-0.1534,-0.1533,0,0,0,0,0,0,0,0,0,0,0,0,0,-0.1673,-0.1686,-0.1719,-0.1676,-0.1672,-0.1678,-0.1677,-0.1676,-0.1594,-0.1593,-0.1591,-0.1589,-0.1534,-0.1534,-0.1533,-0.1567,0,0,-0.1532,-0.1531,0,0,0,0,0,0,0,0,-0.1674,-0.1674,-0.1683,-0.1679,-0.1675,-0.1643,-0.1645,-0.164,-0.1595,-0.1619,-0.159,-0.1588,-0.1574,-0.157,-0.156,-0.1564,-0.1561,-0.1532,-0.1531,-0.1531,-0.1531,0,0,0,0,0,0,0,-0.1675,-0.1675,-0.1698,-0.1683,-0.1678,-0.1645,-0.1641,-0.1643,-0.1603,-0.1617,-0.1612,-0.1615,-0.157,-0.156,-0.1558,-0.1561,-0.1532,-0.1531,-0.1531,-0.1531,-0.1575,-0.1576,0,0,0,0,0,0,-0.1693,-0.1676,-0.1699,-0.1697,-0.1675,-0.1648,-0.1643,-0.1652,-0.1603,-0.1596,-0.1617,-0.1612,-0.1562,-0.1559,-0.1556,-0.1594,-0.1531,-0.1531,-0.153,-0.1573,-0.1575,-0.1577,0,0,0,0,0,0,-0.1693,-0.1696,-0.1701,-0.1689,-0.1688,-0.1651,-0.1661,-0.1652,-0.1643,-0.1605,-0.1595,-0.1618,-0.1561,-0.1556,-0.1569,-0.1591,-0.153,-0.153,-0.1572,-0.1574,-0.1576,-0.167,0,0,0,0,0,0,-0.1692,-0.1696,-0.1707,-0.1691,-0.1689,-0.1724,-0.1663,-0.1653,-0.165,-0.1643,-0.1603,-0.1595,-0.1559,-0.1571,-0.1569,-0.1589,-0.1529,-0.157,-0.1573,-0.1575,-0.1665,-0.1675,-0.1684,0,0,0,0,0,-0.1691,-0.1718,-0.1708,-0.1711,-0.1706,-0.1726,-0.1723,-0.1686,-0.1652,-0.1667,-0.1636,-0.1596,-0.1586,-0.1572,-0.1569,-0.159,-0.1568,-0.1572,-0.1575,-0.1661,-0.1673,-0.1684,0,0,0,0,0,0,-0.1711,-0.1713,-0.1701,-0.1727,-0.1736,-0.1714,-0.1724,-0.1701,-0.1687,-0.1674,-0.1626,-0.1618,-0.1631,-0.1608,-0.1593,-0.1611,-0.1567,-0.1571,-0.1633,-0.1645,-0.1654,-0.1657,-0.1529,0,0,0,0,0,-0.1724,-0.1743,-0.1743,-0.1768,-0.1775,-0.1753,-0.1754,-0.1734,-0.1722,-0.1711,-0.1685,-0.1658,-0.1645,-0.1643,-0.1628,-0.1653,-0.1617,-0.1662,-0.1671,-0.1679,-0.168,-0.1652,-0.1658,-0.1588,-0.1588,-0.1588,0,0,-0.1738,-0.1745,-0.1753,-0.1774,-0.1772,-0.1795,-0.1748,-0.1764,-0.1774,-0.1712,-0.172,-0.1694,-0.166,-0.1674,-0.1678,-0.1657,-0.1683,-0.1684,-0.1691,-0.1687,-0.1656,-0.1662,-0.1668,-0.159,-0.159,-0.1589,0,0,-0.1783,-0.1786,-0.1816,-0.1829,-0.1843,-0.1834,-0.1847,-0.1838,-0.1825,-0.1842,-0.1789,-0.1784,-0.1773,-0.1748,-0.1734,-0.1793,-0.1732,-0.1787,-0.1841,-0.1814,-0.1819,-0.1823,-0.1796,-0.1797,-0.1794,-0.1794,-0.1795,0,-0.1794,-0.1833,-0.183,-0.1864,-0.1875,-0.1859,-0.189,-0.1888,-0.1882,-0.1879,-0.1858,-0.1829,-0.1806,-0.1805,-0.1823,-0.1814,-0.1786,-0.18,-0.1825,-0.1828,-0.1831,-0.1802,-0.1802,-0.1799,-0.1799,-0.1798,-0.1798,0,-0.186,-0.1888,-0.1913,-0.1944,-0.196,-0.199,-0.1989,-0.2002,-0.1984,-0.197,-0.1971,-0.1938,-0.1915,-0.1912,-0.1887,-0.1896,-0.1867,-0.1838,-0.1795,-0.1843,-0.1811,-0.1809,-0.1806,-0.1805,-0.1803,-0.1802,0,0,-0.1881,-0.1943,-0.1948,-0.1968,-0.2,-0.2016,-0.2051,-0.2068,-0.2072,-0.2069,-0.2067,-0.2057,-0.2027,-0.2009,-0.1973,-0.1956,-0.196,-0.1915,-0.1911,-0.1886,-0.1899,-0.187,-0.1864,-0.1932,-0.1932,-0.1932,-0.1873,0,-0.1926,-0.1997,-0.2016,-0.2071,-0.2101,-0.2102,-0.2128,-0.2138,-0.2135,-0.2135,-0.2104,-0.2088,-0.2067,-0.2048,-0.2037,-0.197,-0.1957,-0.1978,-0.1857,-0.1854,-0.182,-0.1862,-0.1834,-0.1777,-0.187,-0.187,-0.187,0,-0.1973,-0.2013,-0.2077,-0.2117,-0.2129,-0.2156,-0.2178,-0.2199,-0.2202,-0.2192,-0.2185,-0.2152,-0.2136,-0.2098,-0.2033,-0.2047,-0.1989,-0.1938,-0.1934,-0.1869,-0.1821,-0.1742,-0.1769,-0.1566,-0.1866,-0.1866,-0.1866,0,-0.1974,-0.2047,-0.2095,-0.2113,-0.2163,-0.2181,-0.2198,-0.2213,-0.2214,-0.222,-0.2208,-0.2194,-0.2156,-0.2107,-0.2033,-0.2026,-0.1946,-0.1916,-0.1836,-0.1833,-0.1766,-0.1757,-0.1579,-0.1867,-0.1867,-0.1868,-0.1868,0,-0.2002,-0.2035,-0.2097,-0.2121,-0.2155,-0.2186,-0.2207,-0.2223,-0.2229,-0.2219,-0.2228,-0.2204,-0.2153,-0.2106,-0.2046,-0.1946,-0.1959,-0.1851,-0.1819,-0.18,-0.1795,-0.1579,-0.1512,-0.1865,-0.1866,-0.1866,-0.1867,0,-0.1987,-0.2036,-0.2083,-0.2142,-0.2157,-0.2174,-0.2198,-0.2205,-0.222,-0.2206,-0.2203,-0.2196,-0.2152,-0.2105,-0.2011,-0.1941,-0.1762,-0.1816,-0.1804,-0.1771,-0.1504,-0.1446,-0.1351,-0.1234,-0.1713,-0.1712,-0.1711,0,-0.1986,-0.2014,-0.2082,-0.2098,-0.2122,-0.2151,-0.2161,-0.2189,-0.2191,-0.219,-0.2175,-0.2151,-0.2128,-0.2016,-0.1938,-0.1848,-0.171,-0.1703,-0.1686,-0.1488,-0.1398,-0.1419,-0.1327,-0.1635,-0.1633,-0.1632,-0.1631,0,-0.1968,-0.1993,-0.2033,-0.2075,-0.2094,-0.2105,-0.2125,-0.213,-0.2148,-0.2145,-0.2135,-0.2124,-0.2061,-0.1994,-0.1885,-0.1785,-0.1573,-0.1674,-0.1465,-0.1325,-0.134,-0.1211,-0.1673,-0.1621,-0.1622,-0.1623,-0.1623,-0.1624,-0.1943,-0.1957,-0.2011,-0.2051,-0.2067,-0.2065,-0.2064,-0.2076,-0.2078,-0.2052,-0.2074,-0.2009,-0.1952,-0.1835,-0.1725,-0.1419,-0.1495,-0.1287,-0.1235,-0.1275,-0.1156,-0.1601,-0.1514,-0.1515,-0.1515,-0.1516,-0.1516,0,-0.1926,-0.1946,-0.1977,-0.2022,-0.2039,-0.2047,-0.2043,-0.2032,-0.2027,-0.1964,-0.195,-0.1776,-0.1685,-0.1524,-0.1262,-0.102,-0.0956,-0.0853,-0.0835,-0.0758,-0.1128,-0.1112,-0.0938,-0.0938,-0.0938,-0.0939,-0.0939,-0.0939,-0.191,-0.1939,-0.1968,-0.1998,-0.202,-0.2013,-0.2003,-0.1965,-0.1916,-0.177,-0.1609,-0.1491,-0.1178,-0.0979,-0.0639,-0.0556,-0.0328,-0.0409,-0.0263,-0.0459,-0.0494,-0.0528,-0.049,-0.0189,-0.0189,0.0093,0.0096,0.0099]}],[{"header":{"parameterUnit":"m.s-1","parameterCategory":2,"la1":30.2991,"la2":30.254,"lo1":-89.0895,"lo2":-89.0444,"dy":0.0017,"dx":0.0017,"nx":28,"ny":28,"refTime":"2026-02-01T09:00:00:Z","depth":"2","parameterNumber":2,"parameterNumberName":"U-component_of_CURRENTS"},"data":[0,0,0,0,0,0,0,0,0,0,0,0,0,0,0,0,0,0,0,0,0,0,0,0,0,0,0,0,0,0,0,0,0,0,0,0,0,0,0,0,0,0,0,0,0,0,0,0,0,0,0,0,0,0,0,0,0,0,-0.1786,-0.1785,0,-0.1736,-0.1735,-0.1734,-0.1669,-0.1668,-0.1667,-0.1666,-0.16,-0.1599,-0.1598,0,0,0,0,0,0,0,0,0,0,0,0,0,-0.1854,-0.1852,-0.1786,-0.1785,-0.1785,-0.1736,-0.1735,-0.1734,-0.1669,-0.1668,-0.1667,-0.1665,-0.16,-0.1599,-0.1598,0,0,0,0,0,0,0,0,0,0,0,0,0,-0.1815,-0.1852,-0.1786,-0.1747,-0.1743,-0.1736,-0.1735,-0.1734,-0.1669,-0.1668,-0.1666,-0.1665,-0.16,-0.1599,-0.1598,-0.1619,0,0,-0.1594,-0.1593,0,0,0,0,0,0,0,0,-0.1817,-0.1812,-0.1753,-0.175,-0.1746,-0.1708,-0.1735,-0.1695,-0.1669,-0.1696,-0.1666,-0.1664,-0.1636,-0.1632,-0.1624,-0.1616,-0.1613,-0.1594,-0.1593,-0.1593,-0.1592,0,0,0,0,0,0,0,-0.182,-0.1814,-0.1765,-0.1753,-0.1748,-0.1742,-0.1735,-0.1727,-0.1674,-0.1694,-0.1689,-0.1686,-0.1634,-0.1626,-0.1622,-0.1612,-0.1594,-0.1593,-0.1592,-0.1591,-0.1645,-0.1647,0,0,0,0,0,0,-0.1828,-0.1817,-0.1766,-0.1763,-0.178,-0.1742,-0.1734,-0.1721,-0.1674,-0.1666,-0.1687,-0.1683,-0.1629,-0.1624,-0.162,-0.164,-0.1593,-0.1591,-0.1591,-0.1643,-0.1645,-0.1648,0,0,0,0,0,0,-0.183,-0.1824,-0.1768,-0.179,-0.1783,-0.1742,-0.1728,-0.172,-0.17,-0.1669,-0.166,-0.1674,-0.1627,-0.1622,-0.1623,-0.1637,-0.1591,-0.159,-0.164,-0.1644,-0.1647,-0.1682,0,0,0,0,0,0,-0.1832,-0.1824,-0.1818,-0.1791,-0.1782,-0.1795,-0.173,-0.172,-0.1702,-0.1696,-0.1656,-0.1649,-0.1626,-0.1626,-0.1622,-0.1634,-0.1589,-0.1637,-0.1642,-0.1646,-0.1678,-0.1686,-0.1693,0,0,0,0,0,-0.1834,-0.184,-0.1818,-0.1812,-0.1774,-0.1798,-0.1795,-0.1759,-0.1703,-0.1727,-0.1684,-0.1649,-0.1649,-0.1626,-0.1622,-0.1634,-0.1635,-0.164,-0.1645,-0.1675,-0.1685,-0.1693,0,0,0,0,0,0,-0.1866,-0.1833,-0.1808,-0.1802,-0.1812,-0.1788,-0.1792,-0.1759,-0.1741,-0.1716,-0.167,-0.1664,-0.1673,-0.166,-0.1635,-0.1668,-0.164,-0.1644,-0.1664,-0.1673,-0.168,-0.1689,-0.1588,0,0,0,0,0,-0.1871,-0.1862,-0.1849,-0.1847,-0.1848,-0.1815,-0.1811,-0.1791,-0.1771,-0.1758,-0.1728,-0.1701,-0.1694,-0.1687,-0.1686,-0.1698,-0.165,-0.171,-0.1717,-0.1723,-0.1732,-0.1656,-0.1656,-0.1664,-0.1664,-0.1664,0,0,-0.1877,-0.1862,-0.1853,-0.1853,-0.1841,-0.1873,-0.1809,-0.1813,-0.1833,-0.1756,-0.1762,-0.1726,-0.1706,-0.1721,-0.1725,-0.1707,-0.1699,-0.1729,-0.1734,-0.174,-0.1661,-0.1659,-0.1658,-0.1667,-0.1667,-0.1666,0,0,-0.1911,-0.1879,-0.1892,-0.1911,-0.1911,-0.1906,-0.1909,-0.189,-0.1875,-0.1886,-0.1828,-0.1806,-0.18,-0.1784,-0.1774,-0.1829,-0.1743,-0.1824,-0.1859,-0.1786,-0.1783,-0.178,-0.1719,-0.171,-0.1824,-0.1824,-0.1824,0,-0.1921,-0.1924,-0.1908,-0.1945,-0.195,-0.1925,-0.1954,-0.1964,-0.1948,-0.1924,-0.1905,-0.1849,-0.1837,-0.1823,-0.1848,-0.1843,-0.1778,-0.1817,-0.1789,-0.1785,-0.1782,-0.172,-0.1709,-0.1827,-0.1826,-0.1826,-0.1826,0,-0.1972,-0.1981,-0.1996,-0.2023,-0.205,-0.2067,-0.2082,-0.209,-0.2051,-0.2029,-0.1999,-0.1967,-0.1916,-0.1924,-0.1903,-0.1874,-0.1829,-0.1802,-0.1753,-0.1782,-0.1717,-0.1705,-0.183,-0.1829,-0.1829,-0.1828,0,0,-0.1946,-0.2013,-0.201,-0.2018,-0.2075,-0.2082,-0.2144,-0.2152,-0.212,-0.2124,-0.2071,-0.208,-0.2002,-0.1989,-0.194,-0.1901,-0.1831,-0.1841,-0.1835,-0.1758,-0.1652,-0.1633,-0.1618,-0.1767,-0.1765,-0.1764,-0.1616,0,-0.1972,-0.2028,-0.2066,-0.2112,-0.2129,-0.215,-0.2189,-0.2199,-0.2179,-0.2138,-0.21,-0.2034,-0.2044,-0.1967,-0.1945,-0.1846,-0.1802,-0.1874,-0.1657,-0.1652,-0.161,-0.1605,-0.1488,-0.1347,-0.1604,-0.1602,-0.1601,0,-0.1985,-0.2014,-0.2054,-0.2093,-0.2098,-0.212,-0.2108,-0.2142,-0.2127,-0.2097,-0.2052,-0.2001,-0.1953,-0.1934,-0.1816,-0.1843,-0.176,-0.1703,-0.1694,-0.1656,-0.1611,-0.1363,-0.1316,-0.1581,-0.1582,-0.1584,-0.1585,0,-0.1911,-0.1989,-0.1996,-0.2018,-0.208,-0.2066,-0.2076,-0.2085,-0.2063,-0.2022,-0.1964,-0.193,-0.1832,-0.1776,-0.1691,-0.1716,-0.1542,-0.1552,-0.1469,-0.1466,-0.1321,-0.1309,-0.1459,-0.1459,-0.1459,-0.146,-0.146,0,-0.1894,-0.1891,-0.1936,-0.1933,-0.1896,-0.1967,-0.1908,-0.1925,-0.1908,-0.1846,-0.1881,-0.1799,-0.1773,-0.1687,-0.1651,-0.1521,-0.1497,-0.1473,-0.1423,-0.1335,-0.1327,-0.1499,-0.1505,-0.1454,-0.1455,-0.1456,-0.1457,0,-0.1795,-0.1845,-0.1832,-0.1861,-0.1852,-0.1799,-0.1783,-0.1744,-0.175,-0.1667,-0.1636,-0.1636,-0.1537,-0.1529,-0.1406,-0.1415,-0.1328,-0.128,-0.1198,-0.1144,-0.1319,-0.1329,-0.1188,-0.1186,-0.1185,-0.1183,-0.1182,0,-0.1754,-0.1738,-0.1724,-0.1689,-0.1678,-0.1625,-0.1589,-0.1622,-0.1591,-0.1551,-0.1494,-0.1409,-0.1321,-0.1199,-0.1203,-0.1142,-0.1201,-0.1011,-0.1078,-0.1323,-0.1289,-0.1302,-0.1315,-0.0888,-0.0885,-0.0882,-0.088,0,-0.1653,-0.1624,-0.1606,-0.1533,-0.1473,-0.1431,-0.1385,-0.1351,-0.1379,-0.1328,-0.1233,-0.1157,-0.1065,-0.0967,-0.0942,-0.0914,-0.1039,-0.0954,-0.1157,-0.1007,-0.1036,-0.1005,-0.1027,-0.0854,-0.0857,-0.0859,-0.086,-0.0861,-0.1537,-0.1484,-0.1446,-0.1372,-0.1316,-0.125,-0.1189,-0.1171,-0.1112,-0.1023,-0.0991,-0.0827,-0.0838,-0.0731,-0.0704,-0.0736,-0.0852,-0.0831,-0.084,-0.0852,-0.0876,-0.0904,-0.0701,-0.0702,-0.0704,-0.0705,-0.0706,0,-0.1408,-0.1372,-0.13,-0.1219,-0.1138,-0.1141,-0.1075,-0.1025,-0.0942,-0.0843,-0.0721,-0.0572,-0.0443,-0.0461,-0.0475,-0.0531,-0.0533,-0.0505,-0.0496,-0.0521,-0.0544,-0.0554,-0.0292,-0.029,-0.0289,-0.0288,0,0,-0.1337,-0.1246,-0.1225,-0.1079,-0.1023,-0.0919,-0.0877,-0.0813,-0.0756,-0.064,-0.0504,-0.0346,-0.0402,-0.0302,-0.0351,-0.032,-0.0416,-0.0297,-0.063,-0.0643,-0.0664,-0.0734,-0.0778,0,0,0,0,0]},{"header":{"parameterUnit":"m.s-1","parameterCategory":2,"la1":30.2991,"la2":30.254,"lo1":-89.0895,"lo2":-89.0444,"dy":0.0017,"dx":0.0017,"nx":28,"ny":28,"refTime":"2026-02-01T09:00:00:Z","depth":"2","parameterNumber":3,"parameterNumberName":"V-component_of_CURRENTS"},"data":[0,0,0,0,0,0,0,0,0,0,0,0,0,0,0,0,0,0,0,0,0,0,0,0,0,0,0,0,0,0,0,0,0,0,0,0,0,0,0,0,0,0,0,0,0,0,0,0,0,0,0,0,0,0,0,0,0,0,0.1018,0.1018,0,0.0976,0.0975,0.0974,0.0946,0.0947,0.0947,0.0947,0.0877,0.0875,0.0873,0,0,0,0,0,0,0,0,0,0,0,0,0,0.1045,0.1045,0.1018,0.1017,0.1017,0.0976,0.0975,0.0974,0.0946,0.0947,0.0947,0.0947,0.0878,0.0876,0.0873,0,0,0,0,0,0,0,0,0,0,0,0,0,0.1017,0.1045,0.1018,0.1002,0.1,0.0976,0.0975,0.0973,0.0946,0.0947,0.0947,0.0947,0.0879,0.0876,0.0873,0.0848,0,0,0.0864,0.0862,0,0,0,0,0,0,0,0,0.1019,0.1016,0.1004,0.1003,0.1001,0.097,0.0959,0.0932,0.0946,0.0962,0.0947,0.0947,0.0908,0.0903,0.0889,0.0845,0.0842,0.0863,0.0861,0.086,0.0859,0,0,0,0,0,0,0,0.1021,0.1017,0.0997,0.1004,0.1002,0.0987,0.0983,0.0953,0.093,0.0961,0.096,0.0962,0.0907,0.0892,0.0887,0.0841,0.0863,0.0861,0.0859,0.0858,0.0791,0.0791,0,0,0,0,0,0,0.1036,0.1019,0.0998,0.0996,0.1016,0.0987,0.0982,0.0976,0.0931,0.0926,0.0961,0.0961,0.0897,0.0891,0.0884,0.0868,0.086,0.0857,0.0856,0.0791,0.0791,0.0791,0,0,0,0,0,0,0.1036,0.1034,0.1,0.101,0.1006,0.0987,0.098,0.0975,0.0966,0.0933,0.0926,0.0958,0.0897,0.0889,0.086,0.0864,0.0856,0.0853,0.079,0.0791,0.0791,0.0825,0,0,0,0,0,0,0.1037,0.1034,0.1043,0.1011,0.1006,0.0987,0.098,0.0975,0.0968,0.0967,0.0927,0.0921,0.0896,0.0864,0.0857,0.086,0.0851,0.079,0.079,0.0791,0.0823,0.0826,0.0828,0,0,0,0,0,0.1038,0.104,0.1044,0.1042,0.1016,0.0987,0.0982,0.0967,0.0968,0.096,0.0936,0.0922,0.086,0.0862,0.0852,0.0855,0.079,0.079,0.0791,0.0822,0.0825,0.0828,0,0,0,0,0,0,0.1052,0.1037,0.104,0.1037,0.1019,0.0984,0.098,0.0971,0.0945,0.0944,0.0915,0.0906,0.0884,0.0864,0.0867,0.0837,0.0826,0.0824,0.0853,0.0856,0.0858,0.088,0.0848,0,0,0,0,0,0.1063,0.1063,0.1042,0.1041,0.1033,0.101,0.1002,0.0987,0.096,0.0949,0.0925,0.09,0.0875,0.0862,0.0834,0.0814,0.082,0.0812,0.0815,0.0817,0.0829,0.0842,0.0847,0.0791,0.0791,0.0791,0,0,0.1067,0.1063,0.1062,0.1046,0.103,0.1003,0.1004,0.0985,0.0971,0.0945,0.0921,0.0902,0.0871,0.0849,0.0838,0.0834,0.0836,0.0817,0.0819,0.083,0.0843,0.0849,0.0854,0.0791,0.0791,0.0791,0,0,0.1061,0.1071,0.1061,0.1042,0.1024,0.1008,0.1006,0.0974,0.0973,0.0948,0.0931,0.0924,0.0875,0.0866,0.0852,0.0851,0.0846,0.0837,0.0867,0.088,0.0885,0.089,0.091,0.0916,0.0841,0.0841,0.0841,0,0.1065,0.1045,0.1053,0.1028,0.1009,0.1009,0.0976,0.0975,0.0942,0.0952,0.0944,0.0911,0.0888,0.0879,0.088,0.0859,0.0865,0.0859,0.0885,0.0889,0.0894,0.0913,0.0919,0.0842,0.0842,0.0842,0.0842,0,0.1035,0.1019,0.1008,0.0979,0.0968,0.0937,0.0934,0.0936,0.0941,0.0946,0.0952,0.0931,0.0915,0.091,0.0892,0.0909,0.0904,0.0886,0.0882,0.0902,0.092,0.0926,0.0845,0.0844,0.0844,0.0843,0,0,0.1017,0.0991,0.0981,0.0958,0.0933,0.091,0.0916,0.0917,0.093,0.0937,0.0957,0.0941,0.0956,0.0943,0.093,0.0951,0.0986,0.0934,0.0934,0.0962,0.1021,0.1027,0.1034,0.097,0.0971,0.0972,0.1024,0,0.0977,0.0928,0.0926,0.087,0.0838,0.0848,0.0848,0.0864,0.0895,0.0922,0.096,0.0954,0.0961,0.0946,0.0979,0.0974,0.1003,0.0974,0.0991,0.0992,0.1002,0.1042,0.0962,0.1003,0.103,0.1031,0.1032,0,0.0933,0.0904,0.0855,0.0814,0.0801,0.0777,0.0788,0.0783,0.0851,0.0875,0.0923,0.0954,0.0991,0.0985,0.1035,0.1014,0.1027,0.1037,0.1039,0.1039,0.101,0.0985,0.1013,0.1042,0.1041,0.104,0.104,0,0.0912,0.0846,0.081,0.079,0.0757,0.0749,0.0728,0.0776,0.0776,0.0844,0.0856,0.0936,0.094,0.0995,0.1035,0.1028,0.1095,0.1081,0.1109,0.1109,0.1044,0.1037,0.1126,0.1126,0.1126,0.1126,0.1126,0,0.087,0.0832,0.0793,0.077,0.0726,0.0707,0.0688,0.0702,0.072,0.0721,0.0815,0.0837,0.0939,0.1,0.1047,0.1106,0.1103,0.1134,0.1129,0.1054,0.1047,0.1077,0.107,0.1128,0.1127,0.1127,0.1127,0,0.0867,0.0839,0.0796,0.0746,0.0722,0.0693,0.0629,0.062,0.063,0.0636,0.0645,0.0754,0.0835,0.0945,0.1032,0.1093,0.1156,0.117,0.1085,0.1071,0.1164,0.1158,0.1227,0.1227,0.1228,0.1229,0.1229,0,0.0868,0.0847,0.079,0.0764,0.0739,0.0677,0.0638,0.0592,0.057,0.0582,0.0583,0.0674,0.0751,0.0913,0.1051,0.1169,0.1154,0.1142,0.1125,0.1189,0.1177,0.1171,0.1164,0.105,0.1049,0.1048,0.1048,0,0.0873,0.0865,0.0835,0.0785,0.0732,0.0654,0.0579,0.0533,0.0481,0.0474,0.049,0.0549,0.0735,0.0881,0.1051,0.1088,0.1129,0.113,0.121,0.1041,0.1028,0.1014,0.1013,0.104,0.1041,0.1041,0.1042,0.1042,0.0887,0.0879,0.0851,0.0803,0.074,0.0641,0.0557,0.0475,0.0404,0.0356,0.0431,0.0512,0.0679,0.0933,0.0981,0.105,0.1133,0.1107,0.1107,0.1109,0.1083,0.1072,0.1088,0.1089,0.109,0.1091,0.1091,0,0.0887,0.0883,0.0857,0.079,0.0731,0.0673,0.0529,0.0428,0.0324,0.0311,0.0323,0.0487,0.0635,0.078,0.0927,0.1015,0.0958,0.0937,0.0871,0.0881,0.0889,0.0849,0.0794,0.0792,0.0791,0.079,0,0,0.0888,0.0876,0.0869,0.0797,0.0739,0.0589,0.0487,0.033,0.0261,0.0242,0.0307,0.0431,0.0661,0.0679,0.0755,0.0781,0.0762,0.0716,0.0956,0.0874,0.0878,0.1004,0.0957,0,0,0,0,0]}],[{"header":{"parameterUnit":"m.s-1","parameterCategory":2,"la1":30.2991,"la2":30.254,"lo1":-89.0895,"lo2":-89.0444,"dy":0.0017,"dx":0.0017,"nx":28,"ny":28,"refTime":"2026-02-01T09:00:00:Z","depth":"4","parameterNumber":2,"parameterNumberName":"U-component_of_CURRENTS"},"data":[0,0,0,0,0,0,0,0,0,0,0,0,0,0,0,0,0,0,0,0,0,0,0,0,0,0,0,0,0,0,0,0,0,0,0,0,0,0,0,0,0,0,0,0,0,0,0,0,0,0,0,0,0,0,0,0,0,0,-0.0795,-0.0795,0,-0.0821,-0.0822,-0.0822,-0.0838,-0.0838,-0.0838,-0.0838,-0.0913,-0.0915,-0.0917,0,0,0,0,0,0,0,0,0,0,0,0,0,-0.0747,-0.0748,-0.0795,-0.0795,-0.0796,-0.0821,-0.0822,-0.0822,-0.0838,-0.0838,-0.0838,-0.0838,-0.0913,-0.0915,-0.0917,0,0,0,0,0,0,0,0,0,0,0,0,0,-0.0769,-0.0748,-0.0795,-0.0807,-0.0809,-0.0821,-0.0822,-0.0822,-0.0838,-0.0838,-0.0838,-0.0839,-0.0912,-0.0915,-0.0917,-0.093,0,0,-0.0926,-0.0927,0,0,0,0,0,0,0,0,-0.0768,-0.0771,-0.0805,-0.0807,-0.0808,-0.0827,-0.0832,-0.0861,-0.0838,-0.0826,-0.0838,-0.0839,-0.0889,-0.0894,-0.0897,-0.0933,-0.0936,-0.0926,-0.0928,-0.0929,-0.093,0,0,0,0,0,0,0,-0.0766,-0.077,-0.0804,-0.0806,-0.0807,-0.0808,-0.0811,-0.0837,-0.0856,-0.0827,-0.0828,-0.0833,-0.0891,-0.0894,-0.0899,-0.0937,-0.0926,-0.0928,-0.093,-0.0931,-0.1064,-0.1066,0,0,0,0,0,0,-0.0765,-0.0768,-0.0804,-0.0805,-0.0789,-0.0809,-0.0813,-0.082,-0.0855,-0.086,-0.0832,-0.0833,-0.0889,-0.0895,-0.0901,-0.0969,-0.0929,-0.0932,-0.0933,-0.1062,-0.1064,-0.1066,0,0,0,0,0,0,-0.0764,-0.0768,-0.0802,-0.0788,-0.0792,-0.081,-0.0818,-0.0821,-0.0843,-0.0859,-0.0865,-0.0854,-0.0889,-0.0898,-0.0938,-0.097,-0.0933,-0.0935,-0.106,-0.1063,-0.1065,-0.1071,0,0,0,0,0,0,-0.0763,-0.0768,-0.078,-0.0788,-0.0793,-0.0822,-0.0818,-0.0821,-0.0844,-0.0846,-0.0879,-0.0885,-0.089,-0.0933,-0.094,-0.0973,-0.0937,-0.1057,-0.1061,-0.1064,-0.1068,-0.1073,-0.1078,0,0,0,0,0,-0.0761,-0.0774,-0.078,-0.0785,-0.0807,-0.0823,-0.0826,-0.0838,-0.0846,-0.0859,-0.088,-0.0885,-0.0961,-0.0937,-0.0944,-0.0978,-0.1056,-0.106,-0.1064,-0.1066,-0.1072,-0.1078,0,0,0,0,0,0,-0.076,-0.0777,-0.0784,-0.0802,-0.0818,-0.0826,-0.0842,-0.085,-0.0876,-0.0885,-0.0899,-0.0906,-0.0961,-0.0971,-0.0943,-0.1031,-0.1014,-0.102,-0.1013,-0.1019,-0.1024,-0.1007,-0.094,0,0,0,0,0,-0.0765,-0.078,-0.0795,-0.0811,-0.0823,-0.0837,-0.0849,-0.0857,-0.0877,-0.0889,-0.0907,-0.0941,-0.0982,-0.0999,-0.1034,-0.107,-0.1076,-0.1104,-0.1108,-0.1112,-0.1107,-0.1156,-0.1164,-0.108,-0.108,-0.108,0,0,-0.0768,-0.078,-0.0789,-0.0812,-0.0828,-0.0846,-0.0846,-0.0869,-0.0893,-0.0894,-0.0935,-0.0961,-0.0999,-0.1044,-0.107,-0.1055,-0.1136,-0.1117,-0.112,-0.1112,-0.1161,-0.1169,-0.1176,-0.1083,-0.1082,-0.1082,0,0,-0.0776,-0.0797,-0.081,-0.0824,-0.0849,-0.0864,-0.0877,-0.0896,-0.0917,-0.0957,-0.0971,-0.1009,-0.1064,-0.1086,-0.111,-0.1165,-0.1166,-0.1188,-0.1188,-0.1236,-0.1243,-0.1249,-0.1245,-0.125,-0.1182,-0.1182,-0.1182,0,-0.078,-0.0796,-0.0817,-0.0831,-0.0845,-0.0876,-0.0893,-0.0923,-0.0952,-0.0972,-0.0978,-0.1057,-0.1087,-0.1139,-0.1156,-0.1175,-0.1183,-0.1157,-0.124,-0.1246,-0.1252,-0.1247,-0.1253,-0.1183,-0.1182,-0.1182,-0.1182,0,-0.0792,-0.0807,-0.0818,-0.0849,-0.0872,-0.0891,-0.0931,-0.0963,-0.0997,-0.1019,-0.108,-0.1109,-0.1157,-0.1175,-0.1182,-0.124,-0.1224,-0.1244,-0.1216,-0.126,-0.1252,-0.1258,-0.1184,-0.1183,-0.1183,-0.1183,0,0,-0.0787,-0.0819,-0.0823,-0.0833,-0.088,-0.0897,-0.0953,-0.1002,-0.1035,-0.1077,-0.1114,-0.1181,-0.1194,-0.1221,-0.1235,-0.1257,-0.13,-0.1261,-0.1263,-0.1239,-0.137,-0.1246,-0.124,-0.1335,-0.1337,-0.1338,-0.1338,0,-0.0788,-0.0813,-0.0832,-0.086,-0.0877,-0.0918,-0.0961,-0.1012,-0.1065,-0.1109,-0.1155,-0.1206,-0.1218,-0.1238,-0.1271,-0.129,-0.1321,-0.1296,-0.1346,-0.1346,-0.1218,-0.1245,-0.1344,-0.1343,-0.1344,-0.1345,-0.1346,0,-0.0789,-0.0806,-0.0834,-0.086,-0.0872,-0.0894,-0.0964,-0.1003,-0.1081,-0.1122,-0.118,-0.1223,-0.1267,-0.128,-0.1338,-0.1321,-0.1357,-0.1364,-0.1365,-0.125,-0.1234,-0.1299,-0.1357,-0.1356,-0.1355,-0.1354,-0.1354,0,-0.0776,-0.0802,-0.0826,-0.0836,-0.0881,-0.0899,-0.0928,-0.1003,-0.1033,-0.1129,-0.1152,-0.1235,-0.1261,-0.1323,-0.1352,-0.1362,-0.1391,-0.1419,-0.1339,-0.1329,-0.1436,-0.143,-0.1489,-0.1489,-0.149,-0.149,-0.149,0,-0.0762,-0.0774,-0.0816,-0.0824,-0.0839,-0.0881,-0.0908,-0.0957,-0.1017,-0.1027,-0.1149,-0.1158,-0.1278,-0.1311,-0.1352,-0.1332,-0.141,-0.1329,-0.1327,-0.1436,-0.1431,-0.1438,-0.1432,-0.1489,-0.1489,-0.1489,-0.1489,0,-0.0729,-0.0766,-0.078,-0.0821,-0.0829,-0.0838,-0.0863,-0.0873,-0.0952,-0.0966,-0.0995,-0.1107,-0.1145,-0.1227,-0.1306,-0.1304,-0.1319,-0.131,-0.1376,-0.1378,-0.1225,-0.122,-0.1219,-0.1215,-0.1211,-0.1208,-0.1206,0,-0.071,-0.0721,-0.0761,-0.0752,-0.0759,-0.0773,-0.0768,-0.0836,-0.0833,-0.0901,-0.0882,-0.0966,-0.1029,-0.1021,-0.1141,-0.1206,-0.1222,-0.1224,-0.1265,-0.1202,-0.1201,-0.1201,-0.1201,-0.12,-0.1199,-0.1198,-0.1197,0,-0.0657,-0.0683,-0.0693,-0.068,-0.0668,-0.065,-0.064,-0.0633,-0.0687,-0.0767,-0.075,-0.0806,-0.0843,-0.0934,-0.0992,-0.1047,-0.1213,-0.1187,-0.1196,-0.1235,-0.118,-0.1182,-0.1186,-0.1185,-0.1186,-0.1188,-0.1188,0,-0.0612,-0.0598,-0.0611,-0.0589,-0.0564,-0.0503,-0.0525,-0.0496,-0.0513,-0.0589,-0.0573,-0.0676,-0.0777,-0.0848,-0.0891,-0.0937,-0.0961,-0.0962,-0.0984,-0.0999,-0.0939,-0.0837,-0.0725,0,0,0,0,0,-0.0554,-0.053,-0.0504,-0.0467,-0.0433,-0.0421,-0.0418,-0.0445,-0.0501,-0.0448,-0.0509,-0.054,-0.0625,-0.0704,-0.072,-0.0842,-0.0982,-0.086,-0.0997,-0.1116,-0.113,-0.1087,0,0,0,0,0,0,-0.0513,-0.0497,-0.0482,-0.0363,-0.0313,-0.0261,-0.0258,-0.03,-0.0283,-0.0362,-0.0415,-0.0496,-0.0603,-0.0599,-0.0703,-0.073,-0.0803,-0.0942,-0.094,-0.1107,-0.1121,-0.1132,-0.1093,0,0,0,0,0]},{"header":{"parameterUnit":"m.s-1","parameterCategory":2,"la1":30.2991,"la2":30.254,"lo1":-89.0895,"lo2":-89.0444,"dy":0.0017,"dx":0.0017,"nx":28,"ny":28,"refTime":"2026-02-01T09:00:00:Z","depth":"4","parameterNumber":3,"parameterNumberName":"V-component_of_CURRENTS"},"data":[0,0,0,0,0,0,0,0,0,0,0,0,0,0,0,0,0,0,0,0,0,0,0,0,0,0,0,0,0,0,0,0,0,0,0,0,0,0,0,0,0,0,0,0,0,0,0,0,0,0,0,0,0,0,0,0,0,0,-0.0017,-0.0017,0,-0.0042,-0.0043,-0.0044,-0.006,-0.0059,-0.0059,-0.0058,-0.0021,-0.002,-0.002,0,0,0,0,0,0,0,0,0,0,0,0,0,-0.0007,-0.0007,-0.0017,-0.0017,-0.0017,-0.0042,-0.0043,-0.0044,-0.006,-0.0059,-0.0059,-0.0058,-0.0021,-0.0021,-0.002,0,0,0,0,0,0,0,0,0,0,0,0,0,-0.0025,-0.0007,-0.0017,-0.0023,-0.0024,-0.0042,-0.0043,-0.0044,-0.006,-0.0059,-0.0058,-0.0058,-0.0021,-0.0021,-0.002,-0.0027,0,0,-0.0017,-0.0017,0,0,0,0,0,0,0,0,-0.0024,-0.0026,-0.0023,-0.0023,-0.0023,-0.0042,-0.0026,-0.0033,-0.006,-0.0052,-0.0058,-0.0058,-0.0019,-0.0019,-0.0033,-0.0025,-0.0023,-0.0017,-0.0016,-0.0016,-0.0016,0,0,0,0,0,0,0,-0.0022,-0.0025,-0.0033,-0.0022,-0.0023,-0.0033,-0.0036,-0.0028,-0.0042,-0.0053,-0.0052,-0.0047,-0.002,-0.0034,-0.0032,-0.0023,-0.0017,-0.0016,-0.0016,-0.0015,-0.002,-0.0021,0,0,0,0,0,0,-0.0008,-0.0024,-0.0032,-0.0033,-0.0016,-0.0033,-0.0036,-0.0041,-0.0043,-0.0042,-0.0047,-0.0047,-0.0036,-0.0033,-0.0031,-0.0046,-0.0016,-0.0015,-0.0015,-0.0019,-0.002,-0.0021,0,0,0,0,0,0,-0.0008,-0.0009,-0.0031,-0.0024,-0.0026,-0.0033,-0.004,-0.0042,-0.0052,-0.0039,-0.0037,-0.0052,-0.0036,-0.0032,-0.0025,-0.0043,-0.0015,-0.0014,-0.0019,-0.002,-0.0021,-0.007,0,0,0,0,0,0,-0.0008,-0.0009,-0.0012,-0.0023,-0.0026,-0.004,-0.004,-0.0043,-0.0046,-0.0047,-0.0043,-0.0039,-0.0035,-0.0026,-0.0024,-0.0042,-0.0013,-0.0018,-0.0019,-0.002,-0.0067,-0.0072,-0.0077,0,0,0,0,0,-0.0007,-0.0013,-0.0012,-0.0013,-0.0029,-0.0039,-0.0043,-0.0049,-0.0047,-0.0055,-0.0052,-0.0039,-0.0033,-0.0026,-0.0023,-0.0041,-0.0017,-0.0019,-0.002,-0.0065,-0.0071,-0.0077,0,0,0,0,0,0,-0.0012,-0.0015,-0.0014,-0.0021,-0.0026,-0.004,-0.0044,-0.0048,-0.0056,-0.0052,-0.0044,-0.0041,-0.0045,-0.0032,-0.0025,-0.0046,-0.0024,-0.0025,-0.006,-0.0065,-0.007,-0.0079,-0.0012,0,0,0,0,0,-0.0012,-0.0017,-0.0021,-0.0025,-0.0026,-0.0035,-0.004,-0.0044,-0.0048,-0.0052,-0.0052,-0.0049,-0.0052,-0.0048,-0.0048,-0.0053,-0.0025,-0.0063,-0.0068,-0.0072,-0.0077,-0.0051,-0.0053,-0.0026,-0.0026,-0.0026,0,0,-0.0013,-0.0015,-0.0018,-0.0026,-0.0031,-0.0049,-0.0038,-0.0044,-0.0063,-0.0044,-0.0069,-0.0064,-0.0057,-0.0072,-0.0072,-0.006,-0.0063,-0.0074,-0.0078,-0.008,-0.0052,-0.0055,-0.0057,-0.0027,-0.0027,-0.0027,0,0,-0.0022,-0.0021,-0.003,-0.0039,-0.0042,-0.0051,-0.0051,-0.0066,-0.0073,-0.0087,-0.0087,-0.0096,-0.0092,-0.0106,-0.0107,-0.0134,-0.009,-0.0127,-0.0157,-0.0131,-0.0133,-0.0134,-0.0092,-0.0089,-0.0128,-0.0128,-0.0128,0,-0.0024,-0.0041,-0.0033,-0.005,-0.0063,-0.0054,-0.0078,-0.0086,-0.01,-0.0108,-0.0096,-0.0121,-0.0116,-0.0143,-0.0157,-0.0148,-0.011,-0.0137,-0.0137,-0.0138,-0.0138,-0.0094,-0.009,-0.0131,-0.0131,-0.013,-0.013,0,-0.0039,-0.0062,-0.0067,-0.009,-0.0103,-0.0118,-0.0127,-0.0141,-0.0143,-0.015,-0.017,-0.0173,-0.0184,-0.0191,-0.018,-0.0194,-0.0157,-0.0146,-0.0122,-0.0144,-0.0096,-0.0091,-0.0134,-0.0134,-0.0133,-0.0132,0,0,-0.0035,-0.0073,-0.0079,-0.0107,-0.0129,-0.0145,-0.017,-0.0192,-0.021,-0.0216,-0.0239,-0.0258,-0.0248,-0.0249,-0.0244,-0.0231,-0.0204,-0.0188,-0.0185,-0.0145,-0.0121,-0.0062,-0.005,-0.0181,-0.0181,-0.0181,-0.0083,0,-0.0056,-0.0098,-0.0114,-0.017,-0.0197,-0.021,-0.024,-0.0256,-0.0258,-0.0275,-0.027,-0.0286,-0.027,-0.0277,-0.0261,-0.0225,-0.0195,-0.0231,-0.0107,-0.0104,-0.0047,-0.0044,-0.018,-0.0079,-0.0078,-0.0077,-0.0076,0,-0.0074,-0.0104,-0.0153,-0.0223,-0.0235,-0.0269,-0.0313,-0.0336,-0.0345,-0.0343,-0.0345,-0.0329,-0.0329,-0.0302,-0.024,-0.0255,-0.0188,-0.0152,-0.0147,-0.0072,-0.0035,-0.0055,-0.0067,-0.0067,-0.0068,-0.0069,-0.0069,0,-0.0077,-0.0142,-0.0183,-0.0205,-0.0268,-0.0299,-0.0333,-0.0356,-0.0381,-0.0379,-0.0387,-0.0368,-0.0354,-0.029,-0.0201,-0.0213,-0.0104,-0.0113,0.0005,0.001,-0.0051,-0.0051,-0.005,-0.005,-0.0051,-0.0051,-0.0051,0,-0.0102,-0.0144,-0.0191,-0.0217,-0.0284,-0.0316,-0.0377,-0.0399,-0.0425,-0.0449,-0.0419,-0.042,-0.0345,-0.0271,-0.0196,-0.0066,-0.009,0.0005,0.0038,-0.0073,-0.0076,-0.0047,-0.0048,-0.0047,-0.0048,-0.0049,-0.0049,0,-0.0113,-0.0137,-0.0198,-0.0262,-0.0289,-0.0335,-0.042,-0.0458,-0.0469,-0.0497,-0.0496,-0.0446,-0.0332,-0.0233,-0.0109,-0.0051,0.0053,0.0114,0.0011,0.0035,0.0147,0.0142,0.023,0.0233,0.0235,0.0237,0.0239,0,-0.0125,-0.0148,-0.0223,-0.0266,-0.0304,-0.0376,-0.0427,-0.0473,-0.0507,-0.051,-0.0518,-0.0414,-0.0356,-0.0132,-0.003,0.0146,0.0169,0.0213,0.015,0.0152,0.0175,0.0166,0.0158,0.0243,0.0244,0.0244,0.0245,0,-0.015,-0.0167,-0.0216,-0.0288,-0.0352,-0.0431,-0.0501,-0.0525,-0.0559,-0.0573,-0.0509,-0.0401,-0.0251,-0.0096,0.0072,0.0179,0.0163,0.0238,0.0233,0.0173,0.0168,0.0187,0.0176,0.0253,0.0252,0.0251,0.0251,0,-0.0165,-0.0203,-0.0248,-0.0312,-0.0392,-0.0456,-0.0502,-0.0526,-0.0551,-0.0543,-0.0512,-0.0367,-0.0287,-0.0075,0.0059,0.0199,0.0207,0.02,0.0196,0.0188,0.0144,0.0129,0.0236,0,0,0,0,0,-0.017,-0.0203,-0.0271,-0.0345,-0.042,-0.0448,-0.0535,-0.0568,-0.059,-0.0539,-0.0525,-0.0378,-0.016,-0.0074,0.0082,0.0092,0.0222,0.0272,0.021,0.0301,0.0291,0.0251,0,0,0,0,0,0,-0.0181,-0.0232,-0.0262,-0.0338,-0.0378,-0.046,-0.0501,-0.0525,-0.0498,-0.0496,-0.0367,-0.0337,-0.0109,-0.021,0.0101,0.0137,0.0111,0.0371,0.0373,0.0306,0.0297,0.0289,0.0245,0,0,0,0,0]}]]